Find Starlink 35058

NORAD ID: 65394 Int'l Des: 2025-191 Owner: SPXS Country: US Constellation: starlink operational
LEOCIRCULARRETROGRADESSO

当前视图

正在加载3D地球...

About Starlink 35058

Starlink 35058 (NORAD 65394) is a starlink constellation satellite (v2 mini) launched Aug 30, 2025 by SPXS of US. It operates in LEO, CIRCULAR, RETROGRADE, SSO orbit with a mass of 575.00 kg.

即将过境

Passes for default location (London). Set your location on the main map for personalized predictions.

高度历史

Loading altitude history...

两行轨道根数

1 65394U 25191R 26237.13111662 .00002903 00000-0 20494-3 0 9992
2 65394 97.2817 103.7657 0002026 64.9451 295.1987 15.05661231 55619
Epoch: Aug 25, 2026 • Age: 28 hours

当前状态

高度 561.2 km
远地点 / 近地点 N/A
速度 7.59 km/s
星下点 74.35°N, 123.54°W
发射日期 Aug 30, 2025
运行时间 0.9 years
类型 internet

技术详情

分类 Payload
质量 575.00 kg
干质量 530.00 kg
总质量 575.00 kg
长度 0.30 m
直径 4.10 m
跨度 29.00 m
形状 Box + pan
制造商 SPXS
平台类型 Starlink V2MO
阶段状态 In Orbit
所有者/国家 SPXS/US

Most Searched